Zurück zum Katalog

STARLINK-35155

AktivKommunikationVLEO
NORAD 65935·PAYLOAD·🇺🇸 United States

Gestartet Oct 8, 2025 von Vandenberg Space Force Base

Loading…

Nächste Überflüge (nächste 24 Stunden)

TLE

AktuellSource: CelesTrak SupGP

Epoche: Sep 15, 2026, 03:40 UTC

1 65935C 25225AB  26258.15326389 -.00058601  00000+0 -17319-2 0  2586
2 65935  53.1592   2.5730 0001202  86.9871 107.7764 15.34411245    19

Verfolge STARLINK-35155 in Echtzeit mit AllMySat

Download on the App Store